TimeEST,TemperatureF,Dew PointF,Humidity,Sea Level PressureIn,VisibilityMPH,Wind Direction,Wind SpeedMPH,Gust SpeedMPH,PrecipitationIn,Events,Conditions,WindDirDegrees,DateUTC
12:51 AM,30.0,19.0,64,30.55,10.0,ESE,9.2,-,N/A,,Mostly Cloudy,110,2013-11-30 05:51:00
1:51 AM,28.9,19.9,69,30.54,10.0,ESE,8.1,-,N/A,,Clear,110,2013-11-30 06:51:00
2:51 AM,28.9,19.9,69,30.53,10.0,ESE,8.1,-,N/A,,Clear,110,2013-11-30 07:51:00
3:51 AM,28.0,19.9,72,30.51,10.0,ESE,4.6,-,N/A,,Clear,110,2013-11-30 08:51:00
4:51 AM,28.0,19.9,72,30.50,10.0,East,3.5,-,N/A,,Scattered Clouds,100,2013-11-30 09:51:00
5:51 AM,30.0,19.9,66,30.50,10.0,SE,4.6,-,N/A,,Scattered Clouds,130,2013-11-30 10:51:00
6:51 AM,30.0,19.9,66,30.48,10.0,SE,5.8,-,N/A,,Overcast,130,2013-11-30 11:51:00
7:51 AM,30.0,19.9,66,30.48,10.0,SE,4.6,-,N/A,,Overcast,140,2013-11-30 12:51:00
8:51 AM,30.0,19.9,66,30.47,10.0,SE,6.9,-,N/A,,Overcast,140,2013-11-30 13:51:00
9:51 AM,30.9,21.0,67,30.46,10.0,SE,5.8,-,N/A,,Overcast,140,2013-11-30 14:51:00
10:51 AM,34.0,23.0,64,30.44,10.0,SSE,8.1,-,N/A,,Mostly Cloudy,160,2013-11-30 15:51:00
11:51 AM,37.9,24.1,57,30.41,10.0,SSW,4.6,-,N/A,,Mostly Cloudy,210,2013-11-30 16:51:00
12:51 PM,39.9,25.0,55,30.36,10.0,SSW,9.2,-,N/A,,Partly Cloudy,210,2013-11-30 17:51:00
1:51 PM,41.0,26.1,55,30.33,10.0,SSW,8.1,-,N/A,,Partly Cloudy,210,2013-11-30 18:51:00
2:51 PM,43.0,26.1,51,30.31,10.0,SSW,9.2,-,N/A,,Partly Cloudy,200,2013-11-30 19:51:00
3:51 PM,43.0,27.0,53,30.29,10.0,South,8.1,-,N/A,,Partly Cloudy,180,2013-11-30 20:51:00
4:51 PM,42.1,27.0,55,30.27,10.0,SSE,5.8,-,N/A,,Partly Cloudy,160,2013-11-30 21:51:00
5:51 PM,39.9,27.0,60,30.25,10.0,SSE,3.5,-,N/A,,Scattered Clouds,150,2013-11-30 22:51:00
6:51 PM,37.9,26.1,62,30.25,10.0,SE,5.8,-,N/A,,Clear,140,2013-11-30 23:51:00
7:51 PM,37.0,26.1,65,30.25,10.0,SSE,5.8,-,N/A,,Partly Cloudy,150,2013-12-01 00:51:00
8:51 PM,37.9,27.0,65,30.23,10.0,SE,5.8,-,N/A,,Mostly Cloudy,140,2013-12-01 01:51:00
9:51 PM,39.0,27.0,62,30.22,10.0,SSE,5.8,-,N/A,,Partly Cloudy,150,2013-12-01 02:51:00
10:51 PM,37.0,27.0,67,30.21,10.0,Calm,Calm,-,N/A,,Partly Cloudy,0,2013-12-01 03:51:00
11:51 PM,34.0,26.1,73,30.20,10.0,Calm,Calm,-,N/A,,Partly Cloudy,0,2013-12-01 04:51:00